Location: Rosenheim
(47.8408°N, 12.2113°E)
Time: 19:43:27
(UTC+01:00)

ISS - Pass Details

Date: 12 November 2017
Orbit: 402 x 407 km, 51.6° (Epoch: 22 November)

Event Time Altitude Azimuth Distance (km) Brightness Sun altitude
Exits shadow 04:19:51 15° 69° (ENE) 1,180 -0.7 -29.0°
Drops below altitude 10° 04:20:35 10° 74° (ENE) 1,457 -0.1 -28.8°
Sets 04:22:45 0° 82° (E) 2,316 1.3 -28.5°
